TimeCDT,TemperatureF,Dew PointF,Humidity,Sea Level PressureIn,VisibilityMPH,Wind Direction,Wind SpeedMPH,Gust SpeedMPH,PrecipitationIn,Events,Conditions,WindDirDegrees,DateUTC
12:53 AM,64.9,63.0,93,30.07,4.0,Calm,Calm,-,N/A,,Partly Cloudy,0,2013-10-10 05:53:00
1:53 AM,64.0,62.1,93,30.08,4.0,Calm,Calm,-,N/A,,Scattered Clouds,0,2013-10-10 06:53:00
2:49 AM,64.4,62.6,94,30.09,2.5,Calm,Calm,-,N/A,,Partly Cloudy,0,2013-10-10 07:49:00
2:53 AM,64.0,63.0,96,30.07,2.5,Calm,Calm,-,N/A,,Scattered Clouds,0,2013-10-10 07:53:00
3:03 AM,64.4,62.6,94,30.09,3.0,Calm,Calm,-,N/A,,Mostly Cloudy,0,2013-10-10 08:03:00
3:07 AM,64.4,62.6,94,30.10,2.0,Calm,Calm,-,N/A,,Mostly Cloudy,0,2013-10-10 08:07:00
3:14 AM,62.6,62.6,100,30.10,1.5,Calm,Calm,-,N/A,,Mostly Cloudy,0,2013-10-10 08:14:00
3:17 AM,62.6,62.6,100,30.10,2.0,Calm,Calm,-,N/A,,Mostly Cloudy,0,2013-10-10 08:17:00
3:26 AM,62.6,62.6,100,30.10,0.8,Calm,Calm,-,N/A,,Scattered Clouds,0,2013-10-10 08:26:00
3:33 AM,62.6,62.6,100,30.10,0.5,Calm,Calm,-,N/A,Fog,Fog,0,2013-10-10 08:33:00
3:39 AM,64.4,62.6,94,30.10,2.5,Calm,Calm,-,N/A,,Mostly Cloudy,0,2013-10-10 08:39:00
3:53 AM,64.9,63.0,93,30.08,4.0,Calm,Calm,-,N/A,,Overcast,0,2013-10-10 08:53:00
4:32 AM,64.4,62.6,94,30.10,4.0,Calm,Calm,-,N/A,,Mostly Cloudy,0,2013-10-10 09:32:00
4:53 AM,64.0,62.1,93,30.08,4.0,Calm,Calm,-,N/A,,Partly Cloudy,0,2013-10-10 09:53:00
5:08 AM,62.6,60.8,94,30.10,4.0,Calm,Calm,-,N/A,,Scattered Clouds,0,2013-10-10 10:08:00
5:24 AM,62.6,60.8,94,30.10,1.5,Calm,Calm,-,0.01,,Partly Cloudy,0,2013-10-10 10:24:00
5:26 AM,62.6,60.8,94,30.10,0.8,Calm,Calm,-,0.01,,Mist,0,2013-10-10 10:26:00
5:35 AM,62.6,60.8,94,30.10,0.2,Calm,Calm,-,0.01,Fog,Fog,0,2013-10-10 10:35:00
5:45 AM,62.6,60.8,94,30.10,0.5,Calm,Calm,-,0.01,Fog,Fog,0,2013-10-10 10:45:00
5:53 AM,62.1,60.1,93,30.09,0.5,Calm,Calm,-,0.01,Fog,Fog,0,2013-10-10 10:53:00
6:06 AM,62.6,60.8,94,30.11,0.2,Calm,Calm,-,N/A,Fog,Fog,0,2013-10-10 11:06:00
6:21 AM,62.6,60.8,94,30.11,0.5,Calm,Calm,-,N/A,Fog,Fog,0,2013-10-10 11:21:00
6:37 AM,62.6,62.6,100,30.11,0.2,Calm,Calm,-,N/A,Fog,Fog,0,2013-10-10 11:37:00
6:46 AM,62.6,62.6,100,30.11,0.2,Calm,Calm,-,N/A,Fog,Fog,0,2013-10-10 11:46:00
6:53 AM,63.0,62.1,97,30.09,0.2,Calm,Calm,-,N/A,Fog,Fog,0,2013-10-10 11:53:00
7:23 AM,62.6,62.6,100,30.12,0.2,Calm,Calm,-,N/A,Fog,Fog,0,2013-10-10 12:23:00
7:53 AM,64.0,63.0,96,30.10,0.2,Calm,Calm,-,N/A,Fog,Fog,0,2013-10-10 12:53:00
8:40 AM,64.4,62.6,94,30.13,0.2,Calm,Calm,-,N/A,Fog,Fog,0,2013-10-10 13:40:00
8:53 AM,64.9,64.0,97,30.12,0.2,Calm,Calm,-,N/A,Fog,Fog,0,2013-10-10 13:53:00
9:20 AM,66.2,64.4,94,30.14,0.8,Calm,Calm,-,N/A,,Overcast,0,2013-10-10 14:20:00
9:29 AM,66.2,64.4,94,30.14,1.2,Calm,Calm,-,N/A,,Overcast,0,2013-10-10 14:29:00
9:45 AM,66.2,64.4,94,30.14,2.5,Calm,Calm,-,N/A,,Overcast,0,2013-10-10 14:45:00
9:53 AM,68.0,64.9,90,30.12,3.0,Calm,Calm,-,N/A,,Overcast,0,2013-10-10 14:53:00
10:22 AM,69.8,64.4,83,30.14,6.0,ESE,3.5,-,N/A,,Haze,120,2013-10-10 15:22:00
10:35 AM,71.6,64.4,78,30.14,7.0,Calm,Calm,-,N/A,,Scattered Clouds,0,2013-10-10 15:35:00
10:53 AM,73.9,64.9,73,30.12,8.0,Variable,3.5,-,N/A,,Clear,0,2013-10-10 15:53:00
11:53 AM,77.0,64.9,66,30.11,10.0,Calm,Calm,-,N/A,,Scattered Clouds,0,2013-10-10 16:53:00
12:25 PM,78.8,64.4,61,30.12,10.0,West,6.9,-,N/A,,Overcast,280,2013-10-10 17:25:00
12:53 PM,79.0,64.9,62,30.09,10.0,Variable,4.6,-,N/A,,Mostly Cloudy,0,2013-10-10 17:53:00
1:01 PM,80.6,62.6,54,30.11,10.0,Calm,Calm,-,N/A,,Scattered Clouds,0,2013-10-10 18:01:00
1:53 PM,81.0,63.0,54,30.06,10.0,Variable,5.8,-,N/A,,Mostly Cloudy,0,2013-10-10 18:53:00
2:53 PM,82.0,62.1,51,30.03,10.0,Calm,Calm,-,N/A,,Partly Cloudy,0,2013-10-10 19:53:00
3:53 PM,81.0,61.0,50,30.02,10.0,Calm,Calm,-,N/A,,Clear,0,2013-10-10 20:53:00
4:53 PM,80.1,60.1,50,30.00,10.0,Calm,Calm,-,N/A,,Partly Cloudy,0,2013-10-10 21:53:00
5:53 PM,81.0,60.1,49,29.99,10.0,Calm,Calm,-,N/A,,Clear,0,2013-10-10 22:53:00
6:53 PM,75.0,64.9,71,29.99,6.0,Calm,Calm,-,N/A,,Haze,0,2013-10-10 23:53:00
7:53 PM,72.0,64.0,76,30.00,10.0,Calm,Calm,-,N/A,,Mostly Cloudy,0,2013-10-11 00:53:00
8:53 PM,70.0,64.0,81,30.01,9.0,Calm,Calm,-,N/A,,Mostly Cloudy,0,2013-10-11 01:53:00
9:53 PM,69.1,64.0,84,30.00,10.0,Calm,Calm,-,N/A,,Clear,0,2013-10-11 02:53:00
10:53 PM,68.0,64.0,87,30.00,9.0,Calm,Calm,-,N/A,,Partly Cloudy,0,2013-10-11 03:53:00
11:53 PM,66.0,63.0,90,30.00,6.0,Calm,Calm,-,N/A,,Clear,0,2013-10-11 04:53:00